Location: Andrest
(43.3200°N, 0.0641°E)
Time: 15:23:26
(UTC+00:00)

Cosmos 1538 Rocket - Pass Details

Date: 01 December 2020
Orbit: 753 x 791 km, 74.0° (Epoch: 22 January)

Event Time Altitude Azimuth Distance (km) Brightness Sun altitude
Rises 17:50:39 0° 201° (SSW) 3,266 7.8 -15.1°
Reaches altitude 10° 17:53:01 10° 202° (SSW) 2,345 7.0 -15.6°
Maximum altitude 17:58:23 82° 290° (WNW) 805 4.1 -16.5°
Drops below altitude 10° 18:03:47 10° 19° (NNE) 2,365 6.2 -17.4°
Enters shadow 18:03:56 - 19° (NNE) 2,426 6.3 -17.5°
